Погода в Первомайском

Россия / Саратовская область     51°27′50″N   47°37′22″E
темп.,
°C
ветер,
м/с
пор.,
м/с
влажн.,
%
обл.,
%
осадки,
мм/ч
давл.,
гПа
погр.,
м
12 апреля, пн
пн1201:00+13юв466869 0.0 102785
04:00+11юв476577 0.0 102879
07:00+11вюв336362 0.0 102934
10:00+17юв4647100 0.0 1030346
13:00+21вюв453839 0.0 10301002
16:00+22вюв673411 0.0 10301689
19:00+18вюв495073 0.0 1030181
22:00+13вюв4106248 0.0 1032174
13 апреля, вт
вт1301:00+11вюв485812 0.0 1032109
04:00+9вюв49625 0.0 1032117
07:00+8вюв49665 0.0 1032158
10:00+14вюв574554 0.0 1032439
13:00+18вюв563424 0.0 10321017
16:00+20вюв67310 0.0 10301305
19:00+16вюв484722 0.0 1030149
22:00+12вюв4105617 0.0 1030163
14 апреля, ср
ср1401:00+9вюв486077 0.0 1029124
04:00+8в476353 0.0 102999
07:00+7в486616 0.0 1028136
10:00+14вюв69465 0.0 1027469
13:00+18вюв67345 0.0 10251126
16:00+19вюв67335 0.0 10241400
19:00+16вюв47495 0.0 1023127
22:00+12вюв46630 0.0 102383
15 апреля, чт
чт1501:00+11вюв35770 0.0 102269
04:00+10в34860 0.0 102155
07:00+9в34870 0.0 102173
10:00+15в34590 0.0 1020476
13:00+19вюв33380 0.0 10191224
16:00+20юв23340 0.0 10171705
19:00+18всв22430 0.0 101613
22:00+15в33565 0.0 101633
16 апреля, пт
пт1601:00+13юв346656 0.0 101548
04:00+12ююв34686 0.0 101542
07:00+12юв226576 0.0 101429
10:00+18ююв23455 0.0 1014423
13:00+20ююв3337100 0.0 10131549
16:00+21ююз3335100 0.0 10122024
19:00+19юв224267 0.0 101112
22:00+15ююв3457100 0.3 101151